Theta_e
353 353 358 360 360 361 361 360 359 358 358 356 355 354 355 355 354 353 351 350 349 349 348 348 348 349 350 351 352 353 353 354 354 354 354 354 355 354 353 353 353 352 352 352 352 352 352 352 352 351 351 351 351 351 351 351 351 351 351 351 351 352 351 352 351 352 351 350 350 351 350 350 351 352 351 350 350 350 350 350 349 346 346 348 350
351 356 358 359 360 360 360 359 358 358 357 356 355 354 355 354 353 352 351 350 349 348 348 348 348 349 351 352 352 353 353 353 354 354 353 354 354 353 353 353 353 352 352 352 352 352 352 351 351 351 350 351 351 350 350 351 351 351 351 351 351 351 351 352 352 351 351 351 350 350 349 350 350 349 351 350 349 348 349 349 349 346 345 348 349
353 355 358 359 360 359 359 358 358 357 356 355 355 355 355 354 353 351 350 349 348 349 348 347 349 350 351 352 353 353 353 354 354 353 353 353 353 353 353 353 353 353 352 353 353 351 351 351 351 351 351 350 350 350 349 349 351 350 350 350 350 350 351 350 352 351 351 350 350 349 349 349 349 349 350 351 350 349 349 350 349 347 344 348 348
352 355 357 359 360 358 358 358 357 356 355 355 355 355 354 353 352 350 349 348 349 349 348 348 349 350 351 352 352 353 353 353 353 353 353 353 353 354 353 353 353 353 353 353 352 351 350 350 349 349 349 349 349 349 348 350 349 348 349 349 349 350 350 350 350 351 349 349 348 346 345 342 345 348 349 349 349 348 348 349 349 348 348 348 348
352 355 357 357 357 358 357 357 357 356 355 355 355 354 354 352 351 350 349 348 348 349 348 349 350 350 351 352 353 353 353 353 353 353 353 352 352 353 352 353 352 351 353 351 351 350 349 348 348 348 348 348 348 347 348 348 347 346 347 346 347 346 348 348 348 351 350 351 347 345 341 342 342 346 348 348 348 347 347 348 348 348 348 348 348
352 355 356 356 356 356 357 357 356 356 356 356 355 354 352 351 350 350 349 348 349 348 348 349 349 350 351 352 353 354 354 354 353 353 353 353 353 352 352 352 352 352 352 351 349 349 349 349 349 348 346 346 346 346 346 346 345 344 345 344 344 344 345 344 346 347 347 350 344 337 339 340 342 344 347 348 348 347 347 348 348 347 347 347 346
352 353 354 355 355 356 356 356 356 356 355 355 354 353 352 351 350 350 349 348 349 349 348 348 349 350 351 352 353 353 354 354 353 353 353 353 353 353 352 352 352 352 352 352 351 350 349 348 348 348 347 344 344 344 345 345 344 344 344 344 345 344 345 346 347 347 347 347 336 334 338 340 341 343 347 348 348 347 347 347 347 347 346 346 346
350 352 353 354 354 356 356 355 356 355 355 354 353 353 351 350 350 350 349 349 349 349 350 349 349 350 350 352 354 353 354 355 354 353 352 352 353 352 352 353 352 351 351 350 349 349 348 348 348 348 348 345 343 344 344 343 342 343 344 345 346 345 345 346 347 350 348 345 334 336 340 341 341 343 347 347 347 347 347 347 347 346 346 346 346
346 350 352 353 354 356 355 355 354 354 354 353 352 351 351 350 350 350 349 349 349 350 350 349 349 350 351 352 353 353 354 354 354 353 353 353 352 352 352 351 350 350 349 349 348 350 348 348 348 347 346 345 343 342 341 341 342 342 343 343 343 343 345 347 349 350 337 333 334 338 341 341 341 342 346 347 347 346 345 345 345 346 346 346 346
347 349 352 352 353 355 355 354 354 354 353 352 351 351 350 350 350 349 349 349 349 350 350 349 351 352 352 353 353 353 354 354 353 353 353 353 352 352 351 351 350 350 349 349 349 349 349 349 349 348 347 344 343 343 342 341 342 342 341 342 344 345 345 347 348 345 335 335 336 339 341 344 340 341 344 347 346 346 345 345 343 344 344 345 344
348 349 351 352 353 354 353 354 354 353 352 351 350 350 350 350 350 349 349 349 349 350 351 351 351 352 352 353 354 354 354 354 353 353 353 353 352 352 350 350 349 349 349 350 350 349 349 349 348 346 346 344 343 343 343 342 342 342 341 343 344 344 345 346 347 340 335 335 335 337 342 345 338 341 346 347 347 346 345 345 345 345 344 344 343
348 349 351 352 356 353 353 353 353 352 352 351 350 349 349 349 349 348 349 349 349 348 351 352 352 352 353 354 354 354 353 353 353 353 353 352 351 350 351 349 348 348 349 348 348 348 348 347 346 347 346 344 342 342 343 342 341 341 343 343 343 344 344 345 344 337 333 333 333 333 336 337 338 341 345 345 345 345 344 345 345 344 344 344 343
348 350 351 351 351 353 353 353 353 352 351 350 350 349 349 349 348 348 348 349 349 349 350 351 352 352 353 353 353 353 353 352 352 352 352 351 351 350 350 348 348 349 348 348 348 348 348 348 347 346 345 344 343 343 343 343 343 342 341 343 342 343 344 347 342 332 332 333 333 333 333 334 337 343 344 345 344 344 344 344 343 344 343 343 343
347 348 349 350 350 355 352 352 351 352 351 350 350 350 349 348 348 348 349 348 350 350 350 351 352 352 353 353 353 353 353 353 353 352 351 351 350 350 349 348 348 349 349 347 347 347 347 347 347 345 345 344 344 343 343 343 343 342 342 342 343 343 345 343 340 334 334 334 335 334 333 336 338 343 342 342 343 342 343 343 343 342 342 342 341
346 347 348 349 350 350 354 352 351 351 351 351 350 350 350 350 349 348 349 348 348 349 349 350 351 351 351 352 352 352 352 352 352 351 351 350 350 350 349 348 348 348 349 348 348 347 347 347 347 345 344 344 343 343 342 342 342 341 342 342 343 345 345 343 333 335 335 335 334 333 334 336 342 342 341 341 342 342 341 341 341 341 341 340 340
347 347 348 348 348 349 349 352 351 351 351 350 350 350 350 349 348 348 348 348 348 348 349 349 350 349 350 351 351 352 351 351 352 351 350 350 350 350 349 349 347 347 348 348 348 348 347 346 346 344 343 343 342 342 341 342 341 342 342 343 344 344 346 349 335 333 332 332 335 337 335 336 342 342 340 340 340 340 340 340 340 340 340 340 340
346 347 346 346 347 347 348 349 350 351 350 350 350 350 349 349 349 350 348 348 348 348 348 349 350 350 349 350 350 350 350 350 351 350 350 350 349 349 349 349 348 347 348 347 348 348 347 347 345 344 343 342 342 342 341 342 341 343 342 342 344 345 348 345 332 331 331 334 335 333 334 336 339 341 339 339 339 339 339 340 340 340 340 340 339
345 345 344 345 345 346 347 347 348 348 347 349 350 349 349 350 351 350 350 349 349 348 349 350 350 349 349 349 349 349 349 349 350 350 349 349 349 348 349 348 348 348 347 348 347 348 347 347 345 344 343 342 341 341 341 342 342 342 342 343 344 346 348 344 332 333 334 338 336 338 336 340 341 340 341 341 342 342 341 341 341 340 339 338 338
344 343 343 343 343 344 345 347 347 346 346 346 347 348 349 350 351 350 350 351 351 350 350 350 350 349 349 349 348 348 349 349 349 349 348 348 348 347 348 348 347 347 347 347 347 348 348 346 346 344 342 342 341 341 341 341 341 342 343 343 345 346 346 340 334 334 336 338 339 338 338 342 342 342 343 343 342 341 340 339 339 339 338 338 337
342 343 342 342 343 343 344 345 344 345 344 345 347 347 349 350 350 350 350 350 350 350 350 349 349 348 348 348 349 347 347 347 349 347 347 347 348 347 347 347 347 347 346 346 346 347 347 347 346 344 343 342 341 341 341 341 341 342 343 344 345 345 334 334 336 337 337 339 340 339 343 343 342 342 341 341 340 339 338 337 337 337 337 336 336
340 339 341 343 342 342 342 342 342 342 343 344 345 346 348 350 349 349 350 350 350 350 350 349 348 348 347 348 347 343 342 342 344 343 347 344 346 347 347 347 346 346 346 345 346 346 347 346 345 344 343 343 341 341 341 341 342 342 344 344 344 335 333 333 335 338 338 340 340 339 342 341 341 340 339 338 338 337 336 336 336 336 336 336 335
337 337 340 342 341 341 341 341 341 341 342 344 346 347 348 348 346 346 347 348 349 349 348 346 349 343 347 345 342 344 341 341 341 348 343 344 345 347 347 347 346 346 345 345 346 346 346 347 345 344 343 342 342 334 336 340 342 343 344 344 338 334 335 334 334 335 337 337 339 341 341 339 338 338 338 337 335 335 335 334 334 334 334 334 335
336 336 338 340 341 341 342 342 341 342 343 343 345 346 345 345 345 345 347 349 348 348 345 347 343 342 342 342 343 341 341 343 343 347 345 346 344 347 347 346 346 345 345 344 346 346 346 347 345 345 344 343 337 334 332 331 331 339 341 336 332 333 337 333 333 334 335 337 337 341 340 340 337 337 336 335 334 334 334 333 332 332 333 332 332
335 336 338 339 339 340 340 341 340 340 340 342 344 342 342 343 343 343 343 343 343 344 343 342 342 342 341 340 341 346 344 340 350 350 348 344 345 347 346 346 346 345 345 345 345 346 346 347 346 345 344 342 336 332 333 330 328 329 330 330 331 335 334 332 332 332 332 335 334 339 337 337 337 336 337 336 337 335 334 334 334 333 333 334 333
337 337 337 338 338 340 340 340 339 340 340 342 342 341 342 342 342 342 342 342 341 341 342 342 344 342 340 342 343 343 343 341 338 342 340 342 341 340 341 340 338 338 344 338 336 342 342 340 340 342 337 338 336 333 333 331 330 331 331 332 334 337 333 332 331 330 330 332 334 339 338 337 337 336 335 335 334 334 333 332 333 332 332 334 334
337 335 335 337 338 340 340 340 340 340 340 341 341 344 342 340 340 342 342 343 342 342 342 341 341 343 343 343 343 340 340 340 337 338 341 339 339 339 339 338 336 337 341 339 337 336 340 339 340 340 339 338 336 334 334 336 331 332 333 334 335 336 331 331 331 330 331 332 335 338 339 337 336 334 334 335 335 334 334 333 332 332 332 332 333
336 336 337 337 339 340 341 340 339 340 341 341 341 340 339 339 339 341 342 341 342 342 341 340 340 341 340 340 340 339 338 337 337 339 338 340 338 338 338 337 336 335 338 338 336 335 338 338 338 339 338 337 337 336 336 337 335 333 335 336 335 334 332 331 331 331 331 331 336 339 339 337 336 336 334 334 334 333 334 333 332 332 333 333 331
337 337 338 338 339 340 341 341 339 340 339 340 339 339 339 340 342 345 343 345 340 337 339 340 342 339 339 337 340 339 339 338 338 338 339 340 339 336 336 336 336 336 336 336 334 332 335 335 336 338 338 337 337 337 336 337 336 334 334 334 334 334 332 331 331 331 330 331 333 336 338 337 336 334 334 334 334 336 335 334 333 332 334 333 332
336 337 338 338 339 341 341 340 340 340 339 340 338 339 340 340 340 340 339 347 339 338 340 340 340 339 339 340 339 337 339 338 338 339 339 338 338 336 336 335 334 335 335 333 332 331 332 333 334 337 338 337 336 336 337 336 334 333 333 333 333 333 332 331 331 331 330 330 331 334 337 337 336 336 335 336 336 336 336 334 333 333 334 333 331
338 338 338 339 340 342 341 341 340 340 340 341 340 339 341 340 340 340 341 341 337 339 340 338 338 338 336 336 338 337 337 337 337 338 337 338 338 337 336 336 336 335 334 332 329 329 331 331 331 335 338 337 336 338 337 335 333 332 332 333 334 333 332 331 331 330 330 330 331 334 337 337 338 338 338 337 337 337 334 333 333 332 333 333 330
339 338 339 340 342 342 342 342 342 343 341 340 341 341 342 341 340 339 337 337 338 340 338 336 337 336 335 335 335 338 336 335 337 338 339 339 338 336 335 337 337 336 335 335 334 329 332 333 331 334 336 336 336 336 335 333 332 330 332 334 333 333 332 332 331 330 330 330 331 333 336 338 338 340 340 339 338 335 333 333 332 332 331 333 330
339 339 340 341 341 342 343 343 343 343 341 342 343 343 343 343 342 338 338 339 341 339 337 335 338 335 337 335 336 336 337 336 337 338 339 338 338 338 337 336 336 337 337 336 336 337 336 336 334 335 337 336 340 339 337 334 332 329 328 333 334 332 331 332 332 331 331 331 331 331 333 335 338 339 338 338 337 334 333 335 334 333 331 333 331
340 341 341 342 341 342 343 343 343 343 342 343 344 343 342 344 343 340 339 339 336 336 335 337 337 339 339 338 337 336 336 335 334 334 336 336 336 338 337 336 336 337 337 338 338 338 337 337 336 337 339 339 336 334 339 334 332 331 331 331 332 332 333 333 333 331 330 330 330 330 331 333 333 338 339 337 338 337 335 335 333 332 331 331 330
340 341 342 341 344 344 345 345 344 344 343 343 342 342 341 343 343 341 341 338 336 335 336 334 338 338 338 338 337 336 336 337 335 335 336 335 337 338 338 336 335 336 337 339 336 336 336 335 334 335 340 338 336 335 333 331 331 331 331 330 331 332 332 333 333 332 331 330 329 329 329 330 331 332 334 335 335 338 337 335 333 332 332 330 330
341 342 342 343 344 343 345 345 345 343 343 340 340 342 342 341 340 341 339 338 338 336 336 336 336 336 337 336 338 337 337 337 337 335 334 334 335 335 336 337 337 338 339 339 337 337 334 333 334 332 332 335 337 336 334 332 331 331 330 331 330 331 332 332 334 333 331 330 329 328 329 329 330 330 332 332 338 338 337 335 333 332 331 330 331
340 341 343 343 341 342 344 342 343 342 340 339 339 341 341 340 339 342 337 337 337 337 337 337 337 336 337 336 337 337 337 337 338 336 333 333 334 334 335 337 338 338 338 338 336 334 333 333 333 333 331 332 334 336 334 332 330 329 330 330 330 331 331 331 332 333 332 331 328 328 328 328 329 330 334 330 330 334 337 336 336 334 331 331 331
339 340 340 340 340 343 345 342 342 342 341 340 341 340 338 336 339 338 337 336 335 338 336 337 337 337 337 337 336 336 336 336 337 335 333 333 334 334 335 337 336 337 337 337 336 334 333 333 330 333 333 331 331 331 333 331 329 330 330 332 331 332 333 332 332 332 333 331 329 329 328 329 330 337 331 329 330 332 335 336 334 334 334 332 331
340 339 340 339 339 341 342 342 343 343 341 341 341 339 337 336 336 339 339 337 337 337 339 339 337 337 336 336 337 337 337 336 336 335 334 334 334 334 334 335 335 336 335 336 335 334 332 330 330 331 333 334 333 334 332 332 332 331 332 332 332 332 334 334 333 334 331 331 331 330 330 330 331 331 329 329 330 330 331 333 334 334 334 334 332
340 340 340 339 339 338 339 343 342 342 341 341 340 340 339 337 335 337 335 333 335 337 339 338 338 338 337 337 338 337 338 337 336 335 333 333 334 333 333 334 334 333 335 336 334 334 332 331 330 330 334 334 333 334 332 332 333 332 329 329 331 331 333 335 335 333 331 332 332 333 333 331 332 330 328 329 329 329 328 328 328 328 330 335 333
340 340 340 339 338 338 337 339 340 341 341 341 340 338 337 336 333 335 334 334 336 338 339 339 340 338 339 338 337 336 336 336 336 336 334 334 334 334 333 333 333 333 333 334 334 333 333 331 330 331 331 333 335 334 333 332 331 329 327 327 331 333 333 333 334 332 331 331 334 333 332 332 331 330 330 329 329 328 327 327 328 325 326 332 333
340 339 338 337 338 338 338 336 337 339 339 337 334 333 333 334 334 334 334 335 335 337 337 339 340 340 340 340 338 337 337 336 337 336 335 337 335 334 333 332 332 333 332 332 333 333 334 333 331 331 330 329 331 334 334 332 328 325 325 325 328 333 333 332 333 331 331 331 333 332 331 331 331 331 330 329 328 328 327 327 326 325 325 325 330
338 339 337 338 339 339 337 337 337 336 336 336 334 334 334 333 333 332 332 335 337 337 337 339 339 341 340 340 339 338 338 337 337 335 337 335 334 333 332 333 333 333 333 333 332 334 333 333 331 329 331 330 329 332 332 329 323 322 319 319 321 324 328 330 331 332 332 331 331 332 330 330 331 331 331 331 329 328 328 328 327 326 325 326 326
339 338 338 338 338 337 337 336 335 336 335 337 336 335 334 335 333 333 332 333 335 338 338 339 340 339 339 339 339 339 339 338 337 336 336 336 335 334 333 333 333 333 333 333 333 332 332 332 332 330 328 330 331 333 332 329 323 324 323 319 316 317 321 324 327 330 331 330 330 331 331 330 331 331 331 332 331 329 328 329 330 327 326 326 325
337 337 337 337 337 336 335 335 334 336 336 337 335 335 336 335 333 333 333 333 332 334 334 335 335 337 338 339 339 339 336 335 335 335 335 337 336 335 334 333 333 334 333 332 331 332 332 332 332 331 330 327 328 329 333 330 327 324 316 316 318 319 314 319 321 325 330 328 329 329 330 330 330 330 331 331 331 332 330 330 331 331 328 327 326
336 336 336 337 337 334 335 336 334 337 336 336 336 335 334 333 333 333 333 333 334 332 331 332 333 335 338 336 337 335 335 335 333 333 334 336 337 337 335 334 333 333 333 332 331 332 332 332 332 331 330 329 327 328 331 330 328 328 323 317 315 314 315 318 322 321 327 327 327 328 330 329 329 329 329 330 330 330 331 330 331 331 330 329 326
334 336 337 339 338 337 336 337 335 335 338 337 337 335 335 331 331 330 328 328 327 329 329 331 332 333 334 336 336 335 335 334 334 333 333 336 336 336 336 334 333 332 332 332 333 332 332 332 332 331 330 331 329 327 328 330 329 329 328 324 321 316 317 321 321 314 323 325 326 326 328 329 329 329 329 329 330 329 330 331 331 330 331 331 330
332 334 334 335 336 336 337 338 337 338 338 338 338 335 332 332 332 332 331 330 327 328 331 333 334 335 336 336 336 332 334 335 334 334 334 336 333 333 333 334 334 333 333 332 332 332 333 333 333 332 331 331 330 326 327 327 328 329 329 328 327 327 325 320 317 319 317 322 325 325 325 329 329 329 329 329 331 330 330 331 331 331 330 330 330
331 332 332 334 333 334 335 334 336 336 340 341 339 338 336 334 331 333 334 332 331 331 332 334 333 335 334 335 333 332 333 333 333 332 332 334 334 332 331 332 333 334 333 333 332 333 333 333 333 332 332 330 329 327 326 328 325 326 329 327 327 328 328 326 325 321 319 318 320 324 326 329 328 328 330 330 330 330 329 329 329 330 330 330 331
331 331 331 332 332 332 334 334 334 335 336 337 336 338 337 334 332 332 332 334 332 331 332 331 331 332 332 333 333 332 331 333 333 332 333 334 334 332 333 333 333 334 333 332 333 333 332 332 331 329 327 327 327 330 328 327 327 326 326 326 326 325 327 326 327 324 318 317 316 320 322 327 326 325 327 329 331 331 329 329 329 331 330 330 331
332 333 332 332 331 332 333 332 334 333 334 334 334 333 334 334 332 330 328 328 329 328 329 327 328 328 328 329 330 331 331 331 333 333 333 335 334 332 331 333 333 333 333 333 333 333 331 331 332 330 329 327 329 329 329 329 328 327 327 326 324 323 324 323 324 323 324 322 318 319 322 322 320 323 326 327 328 329 329 330 330 331 329 329 331
330 330 331 332 331 331 332 332 332 330 329 330 330 330 331 330 328 328 327 326 326 327 325 324 326 326 326 327 328 330 330 331 330 331 333 333 330 330 330 329 330 332 333 332 332 334 332 331 329 328 328 327 328 330 329 329 327 326 327 326 325 324 323 321 322 324 323 320 319 319 322 324 322 320 324 327 328 328 329 329 329 329 330 329 330
Wind_Speed
7 13 10 15 17 17 17 16 15 14 14 14 14 15 15 16 16 16 15 15 15 16 15 15 14 14 14 14 14 14 13 12 12 13 13 14 15 14 14 14 14 14 14 15 15 15 15 15 15 15 15 15 15 15 15 13 13 14 13 12 12 12 14 16 18 19 19 19 19 19 18 17 16 17 17 18 18 17 16 16 14 11 9 13 18
12 10 9 12 18 17 17 16 15 14 14 14 14 15 15 16 15 15 15 15 15 15 14 14 14 13 12 13 14 14 13 12 13 13 13 14 15 15 14 14 14 14 15 15 16 15 15 14 14 14 14 14 14 14 13 11 11 12 13 11 10 9 10 12 15 17 18 18 18 19 19 18 17 17 18 18 18 18 17 16 15 9 7 17 19
13 12 9 13 17 18 17 16 15 15 14 14 14 15 15 16 15 15 15 15 15 14 14 14 14 13 12 12 12 13 12 13 13 13 13 13 14 14 14 14 14 15 15 15 15 15 14 14 13 13 13 13 13 13 12 10 8 10 11 10 10 8 7 11 14 16 17 17 17 18 18 17 15 17 17 18 18 18 17 17 16 14 11 18 17
16 10 10 14 17 17 17 16 15 15 14 13 14 16 15 14 14 14 15 14 14 14 14 14 14 12 11 12 13 13 13 13 13 13 13 13 14 14 14 15 15 15 15 15 15 14 14 14 13 13 12 11 11 11 11 8 6 6 9 9 7 7 6 6 11 15 16 16 14 11 7 7 10 15 17 17 18 17 17 18 18 18 19 18 20
16 11 10 10 11 14 16 16 15 15 14 14 14 16 14 14 14 14 14 14 13 13 14 14 13 12 11 13 14 13 14 13 12 13 13 13 13 14 14 14 14 14 14 15 14 13 14 13 13 12 12 11 10 10 8 6 4 3 6 7 7 5 5 3 4 7 8 7 8 7 6 8 7 13 15 17 17 16 16 17 18 18 19 20 20
12 12 10 10 9 11 15 15 15 15 15 14 15 15 14 13 13 13 13 13 13 13 13 14 12 11 12 13 14 13 13 13 13 13 12 12 11 13 14 14 14 14 14 14 13 12 12 12 12 12 11 10 10 9 9 6 2 1 2 4 4 5 3 4 2 5 5 5 9 4 6 7 7 8 15 16 17 16 17 17 18 17 17 19 19
13 10 11 10 8 10 14 15 15 15 15 14 15 14 14 13 13 12 12 12 13 12 13 13 12 11 12 13 13 14 13 13 13 13 12 12 11 12 14 14 14 13 13 13 12 11 10 11 11 11 10 9 9 9 7 5 1 3 2 3 3 3 4 3 3 5 4 1 2 4 6 7 6 6 14 15 16 17 17 17 17 17 17 17 17
11 11 11 10 8 13 14 14 14 15 15 14 14 14 13 12 12 12 12 12 13 12 11 11 11 11 11 12 12 13 13 13 13 13 12 12 12 13 14 14 13 13 13 12 10 9 9 9 9 10 10 9 9 9 6 3 2 5 7 8 10 9 8 8 9 12 3 4 4 5 7 6 6 6 12 14 15 17 18 18 16 16 16 17 15
12 12 11 10 10 16 14 14 14 15 15 14 14 14 13 12 11 11 12 13 13 12 10 11 11 11 11 12 13 13 14 14 14 13 12 13 13 13 12 13 13 12 12 10 9 7 7 8 9 9 9 8 8 7 5 2 3 7 9 10 10 9 9 9 11 12 11 6 6 8 8 6 6 6 12 15 15 16 16 14 15 16 16 16 16
13 12 12 9 10 15 14 14 14 15 15 15 14 14 13 11 11 11 11 13 12 11 10 12 12 11 12 12 13 13 14 14 14 14 14 13 13 11 10 11 12 12 11 10 9 7 7 8 9 9 8 7 6 5 4 3 4 7 8 9 10 11 12 12 12 8 7 8 9 8 8 10 5 6 12 15 16 16 16 16 12 12 12 16 17
13 11 11 11 13 14 14 14 14 15 15 15 14 13 13 11 11 11 11 12 12 10 10 12 12 11 12 13 13 13 13 14 13 14 14 12 11 10 11 11 12 11 11 10 9 9 9 10 9 7 6 5 5 3 3 3 4 5 7 9 10 11 11 11 9 2 8 9 8 7 10 13 5 6 14 16 16 16 17 16 15 14 15 15 15
13 12 11 11 16 14 13 13 14 14 15 15 15 14 13 11 11 11 12 11 11 13 11 10 10 11 12 13 14 13 13 13 13 13 13 12 10 10 10 11 11 11 11 11 10 9 9 8 7 6 5 4 4 4 3 4 4 5 7 8 9 10 11 11 5 3 9 9 8 6 5 5 5 9 14 14 14 16 16 16 15 15 15 15 14
13 12 11 11 10 14 13 14 14 15 14 15 14 14 12 12 12 13 12 10 10 12 11 10 11 9 11 13 13 13 13 12 11 12 12 10 11 9 8 10 11 11 11 10 10 9 8 8 7 6 4 4 4 5 6 6 6 7 6 7 8 9 9 11 4 8 8 9 7 7 6 3 3 13 13 14 14 14 15 15 15 15 15 15 14
13 12 10 11 9 16 15 14 13 14 14 13 13 12 12 12 12 13 10 10 9 11 10 10 12 11 10 12 13 12 11 10 10 12 12 11 10 9 8 9 10 11 10 9 9 8 8 8 6 5 4 5 5 6 7 7 7 7 6 6 6 8 9 6 7 9 9 9 7 8 5 4 6 10 13 13 13 13 14 15 15 15 15 14 14
14 12 11 11 11 11 18 15 14 13 12 12 12 12 11 10 10 10 10 10 11 11 10 10 12 12 12 13 13 12 11 9 10 11 12 11 10 9 8 8 9 10 9 9 8 8 7 8 6 5 4 4 5 5 6 6 6 6 7 7 7 8 10 4 3 9 9 8 6 7 6 5 10 10 12 13 12 13 13 14 14 15 15 14 13
13 13 13 12 11 11 10 14 14 14 13 14 13 13 12 12 12 12 12 11 11 11 11 11 13 12 11 12 12 12 12 10 8 9 10 10 9 8 8 8 8 8 8 8 8 8 7 6 5 4 4 4 4 5 5 6 6 6 7 8 9 9 7 4 6 8 8 7 6 6 5 5 9 8 11 12 12 11 12 13 14 14 14 14 14
11 13 12 11 9 8 8 10 12 17 15 14 14 15 14 13 12 12 13 12 12 11 11 11 12 12 11 10 11 11 11 10 9 9 9 9 8 7 7 7 8 8 7 7 7 7 6 5 5 4 3 3 5 5 5 7 7 8 8 8 8 8 9 7 8 8 8 8 7 5 4 4 10 10 11 12 12 12 13 13 14 14 14 14 14
10 10 9 9 7 7 6 7 10 9 8 13 14 15 14 13 12 11 11 10 10 10 9 10 12 11 11 10 10 10 9 8 8 8 8 7 6 6 6 6 6 6 6 5 6 6 6 5 4 4 3 2 4 5 7 7 8 9 9 8 8 8 7 5 8 8 8 8 6 5 5 8 10 12 12 13 13 14 13 14 14 14 13 13 13
8 10 9 10 9 8 7 6 5 5 6 5 5 10 14 12 11 11 12 10 9 11 11 11 13 12 11 11 10 9 8 7 7 7 6 6 6 5 4 5 5 5 5 5 4 5 6 5 4 4 3 2 2 5 7 8 8 9 10 9 8 9 9 7 8 9 8 7 6 6 6 12 11 13 14 14 14 13 13 13 12 13 12 12 12
7 6 8 9 9 8 7 6 5 6 5 5 5 5 10 11 11 12 12 12 11 12 13 12 11 10 10 10 9 6 6 4 6 4 6 5 5 4 4 4 4 4 4 4 4 3 5 5 5 4 4 3 3 4 6 7 8 8 9 9 10 10 5 4 10 9 7 7 6 6 11 12 13 12 12 13 12 12 12 11 11 11 11 11 11
5 2 3 8 9 8 8 5 5 5 5 5 4 5 7 11 9 11 12 12 11 12 12 12 9 8 8 8 7 4 3 3 3 2 5 1 2 2 5 4 3 3 3 2 3 3 4 5 5 4 4 4 4 5 6 8 7 7 8 7 8 3 4 4 7 8 7 6 7 7 13 12 12 12 11 11 11 10 10 10 10 11 11 11 11
5 3 1 4 7 6 6 6 6 5 6 6 5 4 5 8 5 5 5 8 9 10 8 5 7 3 6 6 4 4 4 3 3 5 2 2 2 4 4 4 2 2 2 2 2 3 4 5 5 5 4 4 4 2 3 6 8 8 8 9 4 3 3 6 7 7 7 6 6 8 13 12 10 10 10 10 9 9 9 9 9 9 10 10 11
6 3 3 4 5 5 5 7 6 5 7 6 6 6 6 5 5 5 5 6 6 5 5 5 4 4 4 4 3 1 3 4 4 4 5 6 3 4 5 5 4 3 2 1 2 3 4 5 5 5 4 5 3 3 3 5 5 7 7 5 3 2 1 6 7 7 7 6 5 9 9 8 10 10 9 9 9 10 10 9 8 9 9 9 9
6 5 4 3 3 4 5 6 6 6 7 6 6 6 6 5 5 4 5 5 5 5 5 5 5 5 5 5 4 2 2 1 5 11 10 6 5 6 6 6 6 5 4 3 3 3 4 5 5 5 4 3 3 4 4 5 5 4 4 5 3 1 3 5 7 6 6 6 5 12 10 10 10 10 10 11 11 10 9 10 10 10 10 10 10
5 5 3 3 3 4 4 5 6 7 7 6 6 6 5 5 4 5 4 5 5 5 5 3 3 6 5 4 3 2 2 2 1 2 5 5 5 5 4 4 3 3 5 3 3 3 3 2 2 3 3 4 4 5 4 5 6 4 4 5 5 3 6 6 6 6 6 5 6 11 12 11 10 10 9 9 9 10 9 9 8 9 9 10 10
6 6 5 3 3 3 5 4 5 6 7 5 5 5 6 5 5 5 5 5 5 4 4 3 3 3 3 3 2 2 2 3 1 1 2 3 5 5 5 5 4 5 4 5 4 4 4 4 4 4 4 4 5 5 5 5 6 6 5 5 5 3 5 6 6 6 6 6 6 12 10 11 11 10 9 10 10 11 10 9 8 10 9 8 8
6 5 5 3 3 3 4 5 6 6 7 6 5 5 5 4 4 5 6 5 4 4 4 2 2 3 3 1 2 1 2 1 0 0 1 2 5 5 5 5 5 5 5 5 5 5 6 5 5 5 5 4 6 6 6 7 8 6 5 6 6 7 6 5 6 7 6 5 6 12 11 11 10 11 10 9 9 8 10 10 9 8 9 9 9
7 7 5 5 4 5 5 5 6 6 6 6 5 5 4 4 4 4 4 5 4 4 4 2 2 4 3 1 1 0 1 0 1 2 3 0 2 2 2 4 5 5 5 5 6 5 6 6 6 5 5 5 6 6 6 7 9 5 4 6 4 7 6 6 6 6 6 5 6 10 11 11 11 10 9 8 9 10 10 10 9 8 10 9 9
8 7 6 6 4 5 5 6 6 6 6 6 5 5 4 3 3 4 3 5 3 3 3 3 1 1 2 3 2 1 1 1 3 3 2 2 1 1 1 2 2 4 3 5 6 6 6 7 7 6 6 6 6 6 6 5 5 2 5 5 3 7 7 6 6 6 6 5 6 8 11 11 11 11 11 10 10 10 10 8 8 8 9 8 6
8 8 7 6 5 5 5 6 6 6 6 5 6 5 5 4 5 3 4 3 2 2 3 2 1 3 1 2 3 2 1 2 3 3 2 4 4 3 2 3 4 4 3 4 4 5 5 6 6 6 6 6 6 7 6 5 4 3 4 5 4 8 7 8 7 6 6 6 6 6 11 9 8 9 10 9 11 11 8 9 9 8 9 9 8
8 9 7 6 6 6 5 6 5 6 5 5 6 6 6 5 3 3 3 3 2 2 3 2 1 2 1 1 2 2 2 2 2 3 4 4 5 4 4 4 5 5 4 4 4 5 5 5 6 6 7 6 7 5 5 4 4 3 3 4 5 7 8 7 7 7 6 6 5 5 6 9 7 6 8 10 11 10 9 9 7 8 8 11 9
8 9 7 6 6 5 6 6 6 6 5 4 5 5 6 5 3 4 3 4 4 5 4 4 3 2 2 3 3 4 3 4 3 3 4 5 4 4 4 4 5 4 4 4 5 4 4 6 7 7 7 7 5 4 2 1 3 4 3 3 3 5 8 8 8 8 7 6 6 5 5 5 8 9 10 9 10 8 7 10 10 9 7 11 8
5 7 8 8 6 5 6 6 5 6 5 4 5 5 4 3 4 3 4 3 3 3 5 5 4 5 5 6 5 6 5 6 6 5 3 2 2 3 4 4 4 3 3 3 4 5 4 2 3 5 5 4 4 2 1 1 3 5 2 4 4 5 6 8 8 8 8 7 6 6 5 4 4 7 9 10 7 8 10 10 10 8 8 7 7
6 6 8 8 5 4 4 5 5 5 4 4 5 5 5 5 4 3 3 3 3 3 4 4 5 5 4 4 4 3 4 6 5 4 3 3 3 4 4 4 4 2 2 4 5 4 3 1 2 1 3 5 4 3 2 2 4 3 4 3 5 4 5 8 9 9 8 7 7 7 6 6 5 4 4 7 4 7 10 10 9 8 8 7 7
6 7 9 8 6 5 5 4 5 5 5 5 5 5 5 5 4 4 4 4 5 5 5 3 3 3 4 4 4 3 4 5 4 4 3 3 4 5 4 4 4 4 4 4 3 4 3 2 0 1 2 0 3 4 3 4 3 3 3 5 5 7 2 5 8 9 8 8 7 7 6 6 5 4 4 4 6 10 10 10 9 8 7 8 8
7 8 8 8 8 5 5 5 5 5 4 4 4 5 5 5 5 5 5 4 4 4 4 4 4 4 4 5 4 5 5 6 6 6 5 5 5 6 5 4 4 4 5 4 3 5 6 3 1 1 1 1 1 2 4 4 3 2 1 4 3 4 7 10 4 9 8 8 7 7 7 6 6 5 5 4 5 7 10 9 8 8 8 9 8
9 9 8 8 7 6 6 6 6 6 6 4 4 4 4 5 5 5 4 3 4 4 3 3 5 5 5 6 6 6 6 7 7 6 5 6 6 6 5 4 3 3 4 5 6 6 5 4 2 0 1 1 2 2 3 4 3 1 2 3 2 4 2 2 10 3 8 9 8 8 7 7 7 8 5 5 4 5 9 8 9 9 8 9 9
8 10 10 9 8 6 6 6 6 6 6 6 5 5 4 3 4 5 4 5 5 5 4 4 4 5 5 6 6 6 6 5 5 5 5 4 4 4 5 4 3 4 5 5 6 4 3 3 3 2 2 1 0 2 3 1 0 0 3 4 4 4 1 3 3 11 4 8 9 9 8 7 7 7 7 6 5 5 4 7 11 9 8 8 8
6 7 8 7 7 7 7 6 7 6 6 6 6 6 6 5 3 4 3 3 2 3 3 4 5 4 4 4 4 5 6 6 5 5 5 5 4 5 5 4 3 4 5 5 5 4 3 3 4 3 1 2 2 2 1 1 1 2 2 3 4 1 2 2 1 3 8 5 8 8 7 7 7 8 7 6 6 5 5 4 5 4 5 8 7
6 5 7 8 8 6 4 4 5 6 7 7 7 5 3 4 3 1 1 2 3 4 5 5 4 4 4 4 4 5 5 6 6 6 6 5 5 5 6 4 4 4 5 5 5 5 5 4 5 4 4 3 3 3 2 1 2 2 2 1 2 3 1 2 1 1 6 3 7 7 7 7 7 8 7 7 6 6 6 5 4 5 3 7 9
6 5 7 7 7 7 6 6 4 4 4 3 2 3 4 3 2 3 4 4 4 4 4 4 4 5 5 5 5 6 6 6 6 6 6 6 6 5 5 5 4 5 5 6 5 5 4 5 4 4 5 4 4 4 3 4 3 1 3 1 0 2 2 1 4 1 2 7 2 5 6 6 6 7 7 7 7 7 6 6 6 5 5 3 5
4 5 5 5 6 8 7 6 4 4 5 4 3 2 1 3 2 2 1 3 5 5 6 6 7 6 6 6 6 6 6 6 6 5 5 6 5 5 5 5 5 6 6 5 4 5 5 5 4 3 4 6 5 6 4 5 2 4 2 0 1 3 2 2 3 2 3 2 4 6 6 6 7 7 6 7 6 7 7 7 6 5 5 4 3
6 5 5 6 6 6 5 5 4 5 4 3 4 3 2 2 2 0 1 1 0 2 2 3 3 4 6 6 7 7 8 7 6 5 4 5 6 6 6 6 5 5 5 6 6 6 6 7 6 6 4 3 4 3 6 7 4 2 2 2 1 2 2 4 3 3 3 4 6 4 5 6 7 7 6 6 6 6 6 6 6 6 5 5 4
6 5 5 6 5 5 5 5 4 4 5 4 5 4 4 4 3 3 3 2 2 2 3 3 2 3 6 7 6 3 2 3 1 2 3 6 7 8 7 7 7 6 7 7 7 8 7 7 6 7 5 5 4 5 6 7 5 7 1 3 2 3 1 6 6 3 4 4 6 2 5 5 6 6 6 6 6 6 6 6 6 6 7 6 5
4 5 5 5 5 5 6 6 4 4 4 4 5 4 3 2 2 1 0 1 2 2 3 4 4 4 3 4 6 1 2 2 3 4 8 9 9 8 8 7 7 7 6 7 7 8 8 7 8 7 8 8 7 4 5 7 7 8 6 3 2 1 4 2 5 2 5 6 5 4 4 6 6 6 6 5 5 5 7 7 5 5 6 7 6
6 5 6 4 4 5 4 4 4 3 4 5 6 5 4 4 4 4 2 2 3 2 5 5 5 5 6 4 2 3 1 1 4 8 8 8 6 6 6 6 6 6 6 7 7 6 8 9 9 8 8 8 7 6 5 6 8 8 6 5 5 5 5 1 5 5 3 3 4 1 3 5 6 6 4 5 6 5 5 7 6 6 6 6 6
6 6 6 6 7 6 4 3 2 2 3 3 3 3 3 3 4 4 3 3 1 2 2 3 5 5 5 5 2 6 3 6 8 6 5 7 3 4 3 4 5 6 6 7 8 9 8 8 7 8 9 8 7 8 8 7 5 6 6 3 2 2 5 6 5 4 6 3 4 4 3 4 5 6 5 5 5 6 6 6 7 7 6 5 5
5 6 5 6 6 5 4 4 3 4 3 2 1 1 1 1 2 1 1 0 1 1 2 4 3 3 3 4 2 6 6 7 8 4 3 3 4 2 4 6 8 8 7 7 9 8 7 6 8 9 8 7 8 9 8 7 9 7 7 6 4 4 4 3 1 4 5 7 4 2 2 4 3 4 5 6 6 6 7 6 7 7 6 6 6
6 6 4 4 4 4 3 2 4 3 3 3 3 3 3 2 2 1 2 1 1 0 1 1 3 3 4 4 2 6 6 8 8 5 0 4 5 4 5 7 8 8 7 7 8 8 9 9 8 7 7 7 7 9 7 8 8 7 8 7 6 5 5 4 3 3 3 4 3 7 6 3 3 2 3 2 4 5 7 7 7 7 7 6 7
4 5 5 4 3 3 3 3 0 1 1 3 3 2 2 2 2 1 1 1 0 1 0 2 3 3 3 4 4 2 6 6 6 3 4 4 2 1 4 8 7 7 7 9 10 10 10 10 10 10 10 8 7 8 9 8 8 7 9 8 8 4 4 5 5 5 1 3 5 8 7 9 8 5 4 6 5 5 5 6 6 6 6 6 6
6 7 6 5 3 3 4 3 3 6 6 6 7 7 5 5 3 3 3 3 3 2 2 3 3 3 3 4 4 4 2 4 4 4 5 5 6 8 8 8 9 8 7 7 9 10 10 9 8 6 8 10 10 10 9 8 6 7 9 8 10 10 10 9 8 8 5 3 2 4 5 7 8 6 7 7 7 6 5 5 6 5 6 6 6
Wind_Direction
116 128 130 128 124 119 115 116 119 117 115 114 112 110 108 107 105 103 102 100 97 95 95 95 95 91 89 87 84 84 86 85 83 85 92 96 99 98 99 98 98 96 94 93 92 91 91 92 91 91 89 88 88 87 89 89 90 92 88 85 85 89 94 95 94 90 84 80 80 79 80 79 77 79 80 81 82 79 74 71 68 65 66 70 71
133 120 123 128 124 120 117 118 119 119 116 115 114 111 109 107 106 105 104 102 100 97 98 100 100 96 91 90 91 86 86 87 87 89 92 97 100 101 101 100 98 96 95 94 91 89 88 88 87 87 87 87 87 88 89 89 91 94 93 90 88 90 96 97 95 93 91 87 81 80 76 74 74 78 77 79 79 79 78 76 73 70 66 70 72
117 121 124 127 122 121 120 121 120 119 117 116 115 112 110 108 107 107 105 104 102 100 99 102 103 100 94 90 89 86 83 86 89 92 94 97 99 100 99 99 97 96 96 93 90 88 87 85 85 87 89 88 86 89 90 86 81 90 95 96 98 91 88 93 95 94 89 85 84 82 80 81 77 79 83 82 81 79 78 77 75 71 71 69 67
118 117 123 126 120 121 122 122 120 120 119 117 116 113 111 109 109 108 107 106 104 103 101 104 104 101 97 91 89 89 88 89 90 92 96 97 99 98 99 98 98 97 95 92 89 88 85 85 84 83 81 85 93 93 96 86 75 80 95 97 89 96 88 99 108 103 95 86 80 78 77 76 78 80 82 83 82 81 79 76 76 75 73 70 69
115 115 116 115 116 120 121 119 120 118 118 119 116 112 111 110 109 108 108 107 106 104 105 106 104 103 98 93 90 92 90 87 85 86 89 94 96 98 99 98 95 93 92 90 90 88 87 85 84 86 87 89 90 93 97 94 80 69 87 101 106 103 104 96 126 136 97 61 70 83 82 77 71 76 82 83 83 81 80 80 76 73 71 71 69
113 116 116 115 114 120 119 119 118 118 120 118 114 112 111 110 110 109 109 110 108 105 106 107 106 102 97 92 92 92 93 90 88 89 90 89 89 93 94 94 92 91 89 87 86 86 86 85 86 86 86 89 94 100 101 90 76 43 91 124 104 80 62 28 345 324 318 31 56 87 83 79 77 77 82 84 83 80 81 80 78 74 71 70 69
115 115 116 113 115 116 116 117 117 118 118 115 113 111 110 110 110 110 111 112 110 106 104 109 107 102 97 92 95 96 95 95 93 92 91 89 91 92 91 86 84 82 82 86 85 85 86 86 88 89 90 90 96 106 104 85 31 299 340 47 72 72 49 8 327 289 270 118 49 81 81 78 77 81 84 85 84 83 81 79 77 75 73 72 72
112 115 111 111 115 119 115 116 115 115 115 114 112 111 110 110 112 111 114 116 113 108 103 109 109 101 96 97 100 100 100 97 97 96 97 95 90 89 89 86 78 72 72 69 69 73 80 85 89 90 91 95 98 103 103 104 315 327 343 4 15 21 17 7 345 318 147 142 120 91 78 76 75 73 82 86 83 80 79 78 76 75 76 76 75
113 109 107 111 117 116 116 115 116 116 114 113 112 111 112 114 115 116 119 119 115 110 106 110 107 100 100 103 101 102 103 101 100 99 100 102 98 95 90 87 83 79 76 73 67 62 73 80 79 82 86 91 99 104 101 94 350 349 353 0 6 9 9 2 1 9 84 109 108 94 92 85 80 83 82 79 80 80 78 74 75 77 78 78 76
107 105 108 110 116 114 115 116 114 114 115 115 115 117 118 120 120 121 122 121 115 111 113 113 105 101 102 103 104 104 105 103 104 104 105 104 100 95 91 88 85 83 79 77 75 73 80 79 74 71 77 86 92 100 92 35 1 356 1 3 2 3 3 7 11 15 82 89 87 82 86 86 76 78 84 84 83 82 82 84 83 81 77 77 79
105 107 110 113 117 114 118 117 118 117 118 121 124 124 127 126 127 127 126 121 116 116 114 110 105 102 106 107 105 104 107 108 107 110 108 104 99 93 89 86 82 82 82 78 73 70 76 73 71 74 77 83 82 80 71 60 22 10 9 7 4 359 358 357 11 35 86 83 85 86 86 88 86 85 87 86 84 83 83 83 83 79 78 78 78
109 110 111 115 121 118 121 121 121 124 128 130 131 133 134 132 130 130 128 120 117 116 103 101 103 106 111 111 111 111 111 113 112 110 111 107 103 93 86 88 85 82 83 83 81 81 81 87 87 83 74 65 60 55 46 51 45 27 18 5 360 357 351 342 349 61 82 76 72 78 86 86 85 92 88 86 85 84 83 83 82 82 81 80 80
102 107 112 114 119 127 126 128 130 133 134 136 135 138 136 133 131 131 128 120 119 117 103 100 100 103 113 114 113 115 116 116 117 115 115 112 103 94 88 89 86 84 86 88 86 89 94 92 87 78 62 47 31 28 27 24 21 18 14 2 351 346 337 347 72 96 85 80 77 70 63 53 82 96 94 90 87 87 86 83 81 81 79 79 80
106 110 117 120 131 135 135 137 137 137 138 137 139 138 136 132 132 131 124 125 121 108 103 104 105 103 107 114 115 113 113 116 119 119 113 109 105 94 91 87 82 84 85 87 87 86 92 93 88 77 56 41 24 17 16 16 9 357 355 349 342 336 346 358 96 98 94 91 86 81 68 61 90 95 97 93 87 85 86 86 85 83 81 80 79
112 119 130 134 142 143 143 141 140 138 137 137 136 136 130 126 126 124 125 130 123 121 119 116 117 114 115 111 113 110 112 111 118 120 117 116 111 98 91 88 85 84 88 89 89 84 85 85 82 78 54 34 24 8 9 7 353 342 332 332 343 346 343 354 80 100 99 97 94 85 72 72 74 81 88 91 89 87 87 87 87 86 85 82 80
118 135 143 144 147 144 138 140 138 139 140 141 140 136 131 132 134 135 139 139 134 131 127 119 122 119 120 116 119 120 117 108 102 112 118 115 113 104 95 91 90 88 90 96 97 96 87 90 93 77 57 33 6 5 355 347 329 323 336 340 343 337 328 354 92 92 95 97 95 84 88 87 93 98 100 96 96 93 89 88 88 90 88 86 83
142 146 141 133 126 128 141 149 151 148 147 147 143 139 139 141 145 150 150 144 142 133 122 115 116 115 115 114 118 121 119 119 109 113 117 119 109 107 100 97 95 92 89 96 103 105 104 102 102 91 69 29 2 342 342 325 321 335 338 330 325 334 351 65 114 111 110 110 108 104 87 86 104 102 100 96 94 98 96 96 92 88 86 84 83
152 128 110 111 124 142 152 148 149 145 145 147 143 142 142 145 147 147 140 135 130 122 112 105 110 112 114 116 121 122 122 119 110 110 113 106 111 111 109 99 96 93 92 92 102 110 121 114 107 106 98 41 347 323 321 322 328 329 323 326 330 337 3 67 101 102 99 97 96 101 100 107 105 101 100 101 103 97 93 88 87 87 87 88 87
116 109 121 136 152 156 145 141 133 128 129 123 126 141 143 139 134 121 113 108 110 116 110 110 117 122 125 120 125 125 121 117 111 113 108 115 127 114 104 106 98 95 88 91 104 116 121 131 129 124 121 109 320 306 314 318 319 320 317 318 331 350 10 103 102 104 102 95 94 93 100 99 95 101 103 101 95 92 89 90 89 87 88 88 88
69 101 144 155 157 150 145 142 138 137 126 107 111 122 140 134 122 118 116 114 117 119 117 117 122 127 127 125 126 129 128 126 123 124 131 127 140 129 107 110 94 99 89 95 109 138 135 141 146 155 156 168 235 285 293 297 302 306 314 326 337 355 16 94 110 106 107 105 104 103 113 114 110 105 99 96 94 93 93 92 91 93 92 93 93
87 93 158 149 150 145 144 135 137 139 126 115 108 115 131 124 119 121 121 119 124 126 127 125 125 133 131 133 127 124 135 145 144 145 154 146 144 92 140 115 121 103 114 126 132 144 160 150 160 174 190 194 215 253 274 287 292 301 306 307 320 18 1 103 106 107 107 113 113 119 123 120 112 106 104 99 98 98 98 100 101 97 97 95 93
139 146 100 92 121 123 142 132 142 143 127 123 124 116 118 112 110 120 125 124 129 133 129 131 131 127 140 142 149 166 167 161 169 173 158 181 155 157 150 148 152 150 110 141 157 173 175 172 174 179 214 224 238 259 286 297 296 296 299 303 337 34 13 115 112 112 112 119 130 136 131 120 118 111 104 101 105 103 104 103 100 102 99 97 97
138 148 146 113 107 120 133 134 134 124 121 126 126 128 121 126 131 133 132 127 133 128 138 137 133 151 156 164 164 178 170 176 179 188 172 169 164 165 174 179 181 193 181 166 194 206 194 190 188 192 207 247 254 277 274 271 282 284 292 303 319 40 87 123 108 111 119 130 140 139 118 121 116 111 112 113 109 100 96 103 108 105 105 109 106
145 148 145 96 83 109 123 129 118 103 96 106 124 134 142 143 143 137 129 138 144 154 158 159 163 173 177 164 172 136 112 95 208 206 184 165 162 172 187 194 197 201 205 192 216 212 218 207 203 198 206 251 261 267 270 268 264 269 270 272 273 102 134 121 118 120 124 131 127 123 125 118 115 126 117 109 103 100 99 98 98 97 98 96 95
133 119 110 121 103 111 110 103 107 102 97 102 116 137 129 124 131 132 144 158 163 161 172 155 163 176 176 152 145 147 122 125 109 62 155 157 164 179 186 188 199 217 204 182 193 190 190 211 202 207 207 231 258 257 266 271 258 249 254 252 256 136 144 130 124 126 127 125 130 135 130 122 122 118 123 118 108 107 105 104 106 104 97 100 105
128 138 145 124 118 107 107 112 105 98 100 101 114 125 115 119 118 141 159 170 163 151 140 143 143 117 110 106 129 117 112 100 69 84 121 161 171 176 195 198 189 205 198 205 195 186 175 197 205 206 219 222 239 256 252 250 248 236 231 251 249 115 133 126 128 124 128 136 142 135 127 128 133 132 121 119 124 116 112 109 111 114 108 105 103
148 141 134 129 132 115 116 114 105 101 99 102 97 102 114 124 136 154 159 164 121 121 122 134 153 104 83 37 53 71 100 102 126 191 227 180 189 185 193 205 211 203 198 195 209 195 180 193 203 213 210 218 234 238 244 246 250 223 212 236 224 118 134 133 127 129 132 141 142 137 137 139 133 126 138 137 122 127 115 116 125 120 113 114 114
130 134 135 139 155 142 137 117 116 110 110 114 111 109 114 130 162 173 140 130 111 126 129 165 124 113 128 134 80 43 101 211 228 207 248 170 149 170 199 218 230 219 206 191 204 208 190 190 199 209 209 217 231 240 239 242 236 215 199 209 220 112 141 135 131 132 135 143 135 139 142 140 133 135 135 124 130 127 128 128 133 126 124 116 108
133 138 138 144 163 140 140 128 129 119 125 127 119 116 121 142 186 180 107 107 130 146 147 173 144 100 131 120 114 70 50 215 215 219 197 243 192 166 182 232 252 260 243 219 211 213 195 191 196 205 203 215 227 246 251 242 259 234 201 213 177 116 140 139 137 135 140 142 134 144 145 146 146 144 147 142 139 131 130 133 131 129 119 109 105
139 137 142 151 153 149 144 134 137 133 141 128 131 138 151 173 201 148 96 119 169 126 102 115 97 116 189 172 128 140 215 204 216 219 223 257 231 197 202 230 238 244 254 258 249 246 224 200 193 199 207 211 220 229 246 268 268 270 223 193 146 134 143 146 142 145 145 139 138 140 146 152 163 156 153 151 136 138 143 134 128 132 126 125 127
136 138 149 153 150 152 145 137 143 138 141 132 142 157 162 174 186 94 120 134 189 127 121 126 109 101 205 212 126 172 237 247 236 209 199 220 239 221 221 225 232 229 217 247 250 245 257 235 206 196 204 210 213 216 218 252 273 286 259 177 175 133 143 142 143 146 143 143 140 134 141 145 141 132 138 141 144 146 145 128 128 134 138 134 132
144 147 146 146 147 149 146 149 148 141 144 149 152 162 163 171 144 131 145 160 165 159 155 158 175 156 201 230 193 172 209 250 237 240 201 200 221 224 219 213 235 242 220 232 259 260 241 235 227 203 201 203 191 174 198 221 291 288 313 231 169 167 132 150 150 148 146 144 142 140 135 141 143 141 140 145 150 148 138 137 140 142 144 139 140
143 139 138 139 150 155 140 149 142 135 149 173 150 144 132 119 147 170 166 160 163 144 158 169 174 179 190 204 209 175 185 212 224 228 238 227 252 253 241 221 215 224 231 236 261 275 257 276 255 221 175 157 164 189 128 332 284 286 301 269 211 188 132 152 150 145 149 151 151 143 144 147 150 142 146 160 163 158 140 147 143 149 152 141 139
138 128 133 145 150 148 138 139 148 143 148 122 117 128 133 127 146 160 155 153 161 190 221 192 173 175 181 192 211 230 198 202 222 233 226 242 256 252 232 221 210 212 229 235 254 268 276 329 327 28 166 157 186 204 176 264 271 282 289 278 246 190 159 154 154 153 152 155 155 151 151 151 152 155 156 158 151 141 140 150 151 151 150 151 145
124 130 143 145 136 133 137 138 141 141 128 119 122 133 137 135 140 148 164 181 188 200 206 208 191 183 179 205 194 199 241 247 232 211 224 229 243 254 249 210 191 195 197 220 241 287 282 248 59 30 44 207 199 184 184 212 239 277 338 353 338 348 300 172 154 154 153 154 155 156 158 155 154 163 149 141 142 139 143 152 151 149 149 147 144
138 137 128 125 126 138 134 135 140 143 133 148 147 144 149 147 152 162 179 203 211 212 199 193 192 188 189 205 204 195 207 227 231 209 191 206 228 236 235 218 194 187 196 198 180 234 270 276 253 101 32 16 251 222 174 204 224 271 41 54 61 46 9 318 196 154 156 150 155 160 164 163 159 158 155 148 145 144 146 161 153 151 150 152 153
132 131 131 134 143 149 146 145 156 155 156 163 158 149 152 147 155 162 176 202 226 245 229 196 194 188 188 190 201 205 207 214 225 229 221 198 205 222 228 220 211 188 193 199 203 205 202 235 276 139 115 335 341 306 242 215 209 189 68 67 91 96 66 302 303 201 144 152 157 163 168 168 165 165 155 156 156 155 161 167 149 145 154 162 157
122 125 134 139 146 143 149 161 167 165 158 166 169 163 173 171 180 160 177 193 211 224 215 203 218 211 190 192 190 202 219 224 220 223 236 243 232 233 236 220 195 189 199 203 219 203 193 189 234 235 172 157 97 28 342 19 168 85 76 81 68 53 71 329 337 301 160 145 159 167 170 168 166 159 160 161 160 159 160 154 146 151 163 170 165
115 121 124 130 121 120 130 137 144 158 165 167 169 172 174 178 180 170 177 202 252 251 230 217 225 223 213 203 186 193 204 215 226 220 223 233 236 242 248 236 199 207 202 204 211 207 200 193 205 232 169 172 174 132 128 71 85 96 96 67 83 109 304 325 310 326 292 151 155 158 159 166 161 155 159 160 159 158 150 145 146 155 165 168 154
111 110 108 119 124 126 123 118 129 138 146 164 171 173 165 162 162 153 303 248 226 217 221 217 220 226 227 218 207 201 203 208 213 215 220 227 226 222 233 245 231 218 221 216 215 208 208 209 218 207 209 201 185 159 152 122 56 65 78 79 103 117 131 249 210 172 293 282 149 152 157 160 153 155 154 156 162 160 151 148 152 158 145 165 168
117 119 119 129 132 130 115 115 131 127 136 139 128 141 170 180 176 186 202 217 220 229 246 236 216 222 217 216 218 216 209 210 209 201 210 221 227 227 218 227 219 220 224 229 226 220 213 209 214 198 210 212 208 165 166 143 125 51 49 35 11 85 102 58 297 250 97 302 188 132 134 129 141 150 151 155 160 158 155 152 157 157 160 152 173
123 125 133 135 127 132 134 143 144 132 116 137 150 131 155 161 152 179 174 190 213 210 222 225 218 211 210 211 217 217 218 217 216 209 208 205 217 228 226 226 215 220 226 232 234 229 221 214 188 213 208 205 216 176 170 124 184 185 155 78 335 347 18 327 250 245 118 302 287 132 136 134 138 140 141 148 157 160 160 158 158 162 163 147 157
129 126 124 113 109 113 120 138 149 144 141 122 104 113 79 82 97 187 101 307 267 154 178 233 245 224 214 217 210 210 209 210 208 209 209 209 216 217 222 218 221 220 226 229 226 231 224 219 203 205 209 218 212 178 172 180 184 139 114 116 205 152 221 221 249 223 152 124 279 144 141 135 138 140 137 137 156 161 162 162 164 163 160 155 157
119 125 127 136 129 121 129 130 136 127 129 133 135 150 154 166 161 172 196 172 221 270 305 287 275 196 213 218 231 226 280 248 279 262 230 213 208 210 215 212 218 214 219 225 222 226 221 221 210 209 191 210 203 213 178 181 153 139 171 198 177 146 187 233 214 218 145 139 243 209 139 142 134 136 139 147 165 159 161 163 164 156 162 160 166
118 120 134 129 128 132 132 145 152 147 152 153 146 153 147 159 197 219 176 337 336 330 323 326 306 285 264 227 227 321 341 360 15 280 247 221 207 207 207 213 216 216 216 226 228 227 223 218 210 207 203 209 211 190 187 181 187 192 151 122 70 202 212 195 165 216 128 185 217 188 152 145 145 151 156 157 165 162 160 166 167 149 157 166 168
66 57 48 71 104 128 143 129 133 129 146 164 162 154 170 177 186 180 179 188 226 251 246 241 248 245 239 241 170 48 40 320 220 219 240 245 225 215 212 216 217 218 222 229 236 236 229 222 215 212 218 214 209 187 188 192 194 206 204 177 168 176 171 159 134 221 177 229 184 193 161 162 152 152 164 161 169 174 174 169 168 165 168 170 168
63 56 48 47 46 43 37 67 87 140 156 152 156 155 157 194 188 185 179 171 192 247 224 219 220 234 242 239 168 97 307 242 231 224 228 239 248 267 280 247 223 218 222 233 236 232 229 225 217 213 219 214 201 211 198 180 190 222 218 193 115 80 117 132 189 132 186 186 176 177 190 191 168 161 169 180 173 176 186 169 161 165 171 175 178
78 63 52 42 38 23 28 36 51 52 26 100 85 150 140 119 96 105 155 183 168 249 303 310 316 303 287 270 139 133 191 255 266 261 258 310 304 270 246 244 233 216 212 223 234 235 232 227 218 215 216 214 211 213 199 179 183 201 199 202 196 142 171 171 213 207 157 172 184 160 188 184 167 178 173 179 180 179 178 172 158 160 165 182 190
79 76 72 51 37 16 11 19 36 23 36 58 72 64 90 99 76 88 50 53 98 298 277 288 315 315 324 305 280 157 195 229 240 245 18 276 267 277 274 257 247 235 218 220 230 231 233 229 221 215 214 223 220 222 200 195 191 190 175 202 188 179 170 204 195 207 142 156 182 176 182 163 181 173 240 204 205 182 179 176 167 160 163 179 183
70 76 57 44 27 343 319 319 256 351 20 59 63 67 90 97 84 82 89 305 253 286 336 312 302 298 297 297 299 245 194 220 228 215 211 231 284 271 271 278 277 268 245 227 227 223 220 225 220 213 211 205 231 224 212 200 197 186 186 176 185 177 184 198 204 206 194 151 165 190 181 172 186 191 174 220 205 183 172 168 167 160 162 169 181
54 55 41 33 351 325 318 1 33 45 44 35 31 22 13 24 12 355 348 323 299 289 335 316 298 307 298 296 294 293 250 222 216 224 204 199 220 232 226 231 244 255 265 253 242 236 227 223 214 198 211 209 218 218 214 207 198 193 184 180 190 184 185 189 186 194 168 150 123 173 180 192 190 159 195 196 196 190 174 175 171 170 167 169 180